Lexington, NC

3:48 AM EST on January 18, 2017 (GMT -0500)
Davidson County

Weather History for KEXX - October, 2012

Change the Weather History Date:

Tuesday, October 9, 2012

  Actual Average (KINT) Record (KINT)
Temperature  
Mean Temperature 48 °F -  
Max Temperature 55 °F 70 °F 90 °F (2007)
Min Temperature 42 °F 50 °F 29 °F (1987)
Degree Days  
Heating Degree Days 16    
Moisture  
Dew Point 48 °F    
Average Humidity 94    
Maximum Humidity 100    
Minimum Humidity 77    
Precipitation  
Precipitation 0.00 in - - ()
Sea Level Pressure  
Sea Level Pressure 30.13 in    
Wind  
Wind Speed 1 mph (NNE)    
Max Wind Speed 6 mph    
Max Gust Speed -    
Visibility 10 miles    
Events      
Averages and records for this station are not official NWS values.
T = Trace of Precipitation, MM = Missing Value Source: NWS Daily Summary

Daily Weather History Graph

Daily Weather History Graph

Search for Another Location

Airport or City:

Trip Planner

Search our weather history database for the weather conditions in past years. The results will help you decide how hot, cold, wet, or windy it might be!

Date:

Astronomy

Oct. 09, 2012 Rise Set
Actual Time 7:23 AM EDT 6:52 PM EDT
Civil Twilight 6:57 AM EDT 7:18 PM EDT
Nautical Twilight 6:27 AM EDT 7:48 PM EDT
Astronomical Twilight 5:58 AM EDT 8:17 PM EDT
Moon 1:09 AM EDT (10/9) 3:08 PM EDT (10/9)
Length of Visible Light 12h 21m
Length of Day
11h 29m
Last Quarter, 37% of the Moon is Illuminated
Oct 9
Last Quarter
Oct 15
New
Oct 21
First Quarter
Oct 29
Full
Nov 6
Last Quarter

Hourly Weather History & Observations

Time (EDT) Temp. Windchill Dew Point Humidity Pressure Visibility Wind Dir Wind Speed Gust Speed Precip Events Conditions
12:15 AM 42.8 °F - 42.8 °F 100% 30.17 in 7.0 mi Calm Calm - N/A   Unknown
12:35 AM 42.8 °F 41.1 °F 42.8 °F 100% 30.16 in 10.0 mi NE 3.5 mph - N/A   Unknown
12:55 AM 42.8 °F 40.1 °F 42.8 °F 100% 30.16 in 10.0 mi NNE 4.6 mph - N/A   Unknown
1:15 AM 42.8 °F - 42.8 °F 100% 30.16 in 10.0 mi Calm Calm - N/A   Unknown
1:55 AM 44.6 °F - 44.6 °F 100% 30.16 in 10.0 mi Calm Calm - N/A   Unknown
2:15 AM 44.6 °F - 44.6 °F 100% 30.15 in 10.0 mi Calm Calm - N/A   Unknown
2:55 AM 44.6 °F - 44.6 °F 100% 30.15 in 10.0 mi Calm Calm - N/A   Unknown
3:35 AM 44.6 °F 42.2 °F 44.6 °F 100% 30.14 in 10.0 mi North 4.6 mph - N/A   Unknown
3:55 AM 44.6 °F 43.1 °F 44.6 °F 100% 30.13 in 10.0 mi North 3.5 mph - N/A   Unknown
4:15 AM 44.6 °F 43.1 °F 44.6 °F 100% 30.13 in 10.0 mi North 3.5 mph - N/A   Unknown
4:35 AM 44.6 °F - 44.6 °F 100% 30.13 in 10.0 mi Calm Calm - N/A   Unknown
4:55 AM 44.6 °F - 44.6 °F 100% 30.13 in 10.0 mi Calm Calm - N/A   Unknown
5:15 AM 44.6 °F 41.4 °F 44.6 °F 100% 30.13 in 10.0 mi NNE 5.8 mph - N/A   Unknown
5:35 AM 44.6 °F - 44.6 °F 100% 30.14 in 10.0 mi Calm Calm - N/A   Unknown
5:55 AM 44.6 °F - 44.6 °F 100% 30.14 in 10.0 mi Calm Calm - N/A   Unknown
6:15 AM 44.6 °F - 44.6 °F 100% 30.15 in 10.0 mi Calm Calm - N/A   Unknown
6:35 AM 44.6 °F - 44.6 °F 100% 30.15 in 10.0 mi Calm Calm - N/A   Unknown
6:55 AM 44.6 °F - 44.6 °F 100% 30.16 in 10.0 mi Calm Calm - N/A   Unknown
7:15 AM 44.6 °F - 44.6 °F 100% 30.16 in 10.0 mi Calm Calm - N/A   Unknown
7:55 AM 44.6 °F 43.1 °F 44.6 °F 100% 30.16 in 10.0 mi North 3.5 mph - N/A   Unknown
8:15 AM 44.6 °F - 44.6 °F 100% 30.17 in 10.0 mi Calm Calm - N/A   Unknown
8:35 AM 44.6 °F 43.1 °F 44.6 °F 100% 30.18 in 10.0 mi NNE 3.5 mph - N/A   Unknown
8:55 AM 44.6 °F 42.2 °F 44.6 °F 100% 30.18 in 10.0 mi NNE 4.6 mph - N/A   Unknown
9:15 AM 46.4 °F - 46.4 °F 100% 30.19 in 10.0 mi Calm Calm - N/A   Unknown
9:35 AM 46.4 °F 45.2 °F 46.4 °F 100% 30.19 in 10.0 mi North 3.5 mph - N/A   Unknown
9:55 AM 46.4 °F 45.2 °F 46.4 °F 100% 30.19 in 10.0 mi NNE 3.5 mph - N/A   Unknown
10:15 AM 46.4 °F 45.2 °F 46.4 °F 100% 30.19 in 10.0 mi NNE 3.5 mph - N/A   Unknown
10:35 AM 46.4 °F - 46.4 °F 100% 30.18 in 10.0 mi Calm Calm - N/A   Unknown
10:55 AM 48.2 °F - 46.4 °F 93% 30.18 in 10.0 mi North 4.6 mph - N/A   Unknown
11:15 AM 50.0 °F - 46.4 °F 87% 30.18 in 10.0 mi NNE 4.6 mph - N/A   Unknown
11:35 AM 50.0 °F - 46.4 °F 87% 30.17 in 10.0 mi Calm Calm - N/A   Unknown
11:55 AM 51.8 °F - 46.4 °F 82% 30.16 in 10.0 mi Calm Calm - N/A   Unknown
12:15 PM 51.8 °F - 46.4 °F 82% 30.16 in 10.0 mi North 3.5 mph - N/A   Unknown
12:35 PM 51.8 °F - 46.4 °F 82% 30.15 in 10.0 mi ENE 3.5 mph - N/A   Unknown
12:55 PM 51.8 °F - 46.4 °F 82% 30.14 in 10.0 mi Calm Calm - N/A   Unknown
1:15 PM 53.6 °F - 46.4 °F 77% 30.13 in 10.0 mi Calm Calm - N/A   Unknown
1:35 PM 53.6 °F - 46.4 °F 77% 30.13 in 10.0 mi Calm Calm - N/A   Unknown
1:55 PM 53.6 °F - 46.4 °F 77% 30.12 in 10.0 mi Calm Calm - N/A   Unknown
2:15 PM 53.6 °F - 48.2 °F 82% 30.11 in 10.0 mi Calm Calm - N/A   Unknown
2:35 PM 53.6 °F - 46.4 °F 77% 30.11 in 10.0 mi Calm Calm - N/A   Unknown
2:55 PM 53.6 °F - 48.2 °F 82% 30.11 in 10.0 mi Calm Calm - N/A   Unknown
3:15 PM 55.4 °F - 48.2 °F 77% 30.11 in 10.0 mi Calm Calm - N/A   Unknown
3:35 PM 55.4 °F - 50.0 °F 82% 30.10 in 10.0 mi Calm Calm - N/A   Unknown
3:55 PM 55.4 °F - 50.0 °F 82% 30.10 in 10.0 mi Calm Calm - N/A   Unknown
4:15 PM 55.4 °F - 50.0 °F 82% 30.10 in 10.0 mi Calm Calm - N/A   Unknown
4:35 PM 55.4 °F - 50.0 °F 82% 30.10 in 10.0 mi Calm Calm - N/A   Unknown
4:55 PM 55.4 °F - 50.0 °F 82% 30.10 in 10.0 mi Calm Calm - N/A   Unknown
5:15 PM 55.4 °F - 50.0 °F 82% 30.10 in 10.0 mi Calm Calm - N/A   Unknown
5:35 PM 55.4 °F - 50.0 °F 82% 30.10 in 10.0 mi Calm Calm - N/A   Unknown
5:55 PM 55.4 °F - 50.0 °F 82% 30.10 in 10.0 mi Calm Calm - N/A   Unknown
6:15 PM 55.4 °F - 51.8 °F 88% 30.10 in 10.0 mi Calm Calm - N/A   Unknown
6:35 PM 53.6 °F - 53.6 °F 100% 30.10 in 10.0 mi Calm Calm - N/A   Unknown
6:55 PM 53.6 °F - 53.6 °F 100% 30.10 in 10.0 mi Calm Calm - N/A   Unknown
7:15 PM 53.6 °F - 53.6 °F 100% 30.10 in 10.0 mi Calm Calm - N/A   Unknown
7:35 PM 53.6 °F - 53.6 °F 100% 30.10 in 10.0 mi Calm Calm - N/A   Unknown
7:55 PM 53.6 °F - 53.6 °F 100% 30.10 in 10.0 mi Calm Calm - N/A   Unknown
8:15 PM 53.6 °F - 53.6 °F 100% 30.09 in 10.0 mi Calm Calm - N/A   Unknown
8:35 PM 51.8 °F - 51.8 °F 100% 30.09 in 10.0 mi Calm Calm - N/A   Unknown
8:55 PM 51.8 °F - 51.8 °F 100% 30.10 in 10.0 mi Calm Calm - N/A   Unknown
9:15 PM 51.8 °F - 51.8 °F 100% 30.10 in 10.0 mi Calm Calm - N/A   Unknown
9:35 PM 51.8 °F - 51.8 °F 100% 30.10 in 10.0 mi Calm Calm - N/A   Unknown
9:55 PM 51.8 °F - 51.8 °F 100% 30.10 in 10.0 mi Calm Calm - N/A   Unknown
10:15 PM 51.8 °F - 51.8 °F 100% 30.10 in 10.0 mi Calm Calm - N/A   Unknown
10:35 PM 51.8 °F - 51.8 °F 100% 30.10 in 10.0 mi Calm Calm - N/A   Unknown
10:55 PM 53.6 °F - 53.6 °F 100% 30.10 in 10.0 mi Calm Calm - N/A   Unknown
11:15 PM 53.6 °F - 53.6 °F 100% 30.10 in 10.0 mi Calm Calm - N/A   Unknown
11:35 PM 51.8 °F - 51.8 °F 100% 30.10 in 10.0 mi Calm Calm - N/A   Unknown
11:55 PM 53.6 °F - 53.6 °F 100% 30.10 in 10.0 mi Calm Calm - N/A   Unknown